Tracking 30995 objects as of 6-Jul-2025
HD Live streaming from Space Station
objects crossing your sky now

SLOSHSAT

Track SLOSHSAT now!
SLOSHSAT is classified as:


NORAD ID: 28544
Int'l Code: 2005-005C
Perigee: 230.8 km
Apogee: 30,810.7 km
Inclination: 6.8 °
Period: 537.3 minutes
Semi major axis: 21891 km
RCS: 0.5011 m2 (medium)
Launch date: February 12, 2005
Source: European Space Agency (ESA)
Launch site: FRENCH GUIANA (FRGUI)
Your satellite tracking list
Your tracking list is empty




NASA's NSSDC Master Catalog

Two Line Element Set (TLE):
1 28544U 05005C   25186.21811369  .00014239  00000-0  17623-2 0  9996
2 28544   6.7675 169.5343 6984340 295.1797   9.8991  2.68029349181819
Source of the keplerian elements: AFSPC